Time,TemperatureF,DewpointF,PressureIn,WindDirection,WindDirectionDegrees,WindSpeedMPH,WindSpeedGustMPH,Humidity,HourlyPrecipIn,Conditions,Clouds,dailyrainin,SoftwareType,DateUTC
2013-03-06 00:00:00,40.3,23.6,30.28,NW,315,1.1,1.3,51,0.00,,,0.00,WUHU216HW,2013-03-06 06:00:00,
2013-03-06 00:05:00,40.5,23.8,30.29,North,0,4.7,4.7,51,0.00,,,0.00,WUHU216HW,2013-03-06 06:05:00,
2013-03-06 00:10:00,41.0,23.8,30.29,NW,315,2.0,4.7,50,0.00,,,0.00,WUHU216HW,2013-03-06 06:10:00,
2013-03-06 00:15:00,41.8,23.9,30.29,NW,315,2.5,2.9,49,0.00,,,0.00,WUHU216HW,2013-03-06 06:15:00,
2013-03-06 00:20:00,41.9,24.1,30.30,NNW,338,5.4,5.4,49,0.00,,,0.00,WUHU216HW,2013-03-06 06:20:00,
2013-03-06 00:25:00,42.1,24.3,30.30,NW,315,3.1,5.4,49,0.00,,,0.00,WUHU216HW,2013-03-06 06:25:00,
2013-03-06 00:30:00,42.1,23.8,30.29,NNW,338,5.4,5.4,48,0.00,,,0.00,WUHU216HW,2013-03-06 06:30:00,
2013-03-06 00:35:00,42.1,23.8,30.30,North,0,3.8,5.4,48,0.00,,,0.00,WUHU216HW,2013-03-06 06:35:00,
2013-03-06 00:40:00,42.1,23.8,30.30,NNW,338,3.4,4.7,48,0.00,,,0.00,WUHU216HW,2013-03-06 06:40:00,
2013-03-06 00:45:00,41.9,23.6,30.30,North,0,1.8,3.4,48,0.00,,,0.00,WUHU216HW,2013-03-06 06:45:00,
2013-03-06 00:50:00,41.9,24.1,30.30,NW,315,2.9,3.8,49,0.00,,,0.00,WUHU216HW,2013-03-06 06:50:00,
2013-03-06 00:55:00,41.8,23.9,30.30,NW,315,2.9,8.7,49,0.00,,,0.00,WUHU216HW,2013-03-06 06:55:00,
2013-03-06 01:00:00,41.6,23.8,30.31,NNW,338,2.5,8.7,49,0.00,,,0.00,WUHU216HW,2013-03-06 07:00:00,
2013-03-06 01:05:00,41.4,23.6,30.31,NNW,338,1.3,3.1,49,0.00,,,0.00,WUHU216HW,2013-03-06 07:05:00,
2013-03-06 01:10:00,41.2,23.4,30.30,NNW,338,2.0,4.7,49,0.00,,,0.00,WUHU216HW,2013-03-06 07:10:00,
2013-03-06 01:15:00,41.0,23.8,30.31,NNW,338,1.6,4.7,50,0.00,,,0.00,WUHU216HW,2013-03-06 07:15:00,
2013-03-06 01:20:00,40.9,23.6,30.31,North,0,2.5,4.5,50,0.00,,,0.00,WUHU216HW,2013-03-06 07:20:00,
2013-03-06 01:25:00,40.7,23.9,30.30,NW,315,4.0,4.5,51,0.00,,,0.00,WUHU216HW,2013-03-06 07:25:00,
2013-03-06 01:30:00,40.7,23.4,30.30,NW,315,2.5,4.0,50,0.00,,,0.00,WUHU216HW,2013-03-06 07:30:00,
2013-03-06 01:35:00,40.5,23.8,30.31,North,0,1.3,3.6,51,0.00,,,0.00,WUHU216HW,2013-03-06 07:35:00,
2013-03-06 01:40:00,40.3,23.6,30.30,NW,315,2.5,3.6,51,0.00,,,0.00,WUHU216HW,2013-03-06 07:40:00,
2013-03-06 01:45:00,40.0,23.7,30.30,NNW,338,1.3,3.1,52,0.00,,,0.00,WUHU216HW,2013-03-06 07:45:00,
2013-03-06 01:50:00,40.0,23.7,30.30,NW,315,1.1,5.1,52,0.00,,,0.00,WUHU216HW,2013-03-06 07:50:00,
2013-03-06 01:55:00,40.0,24.1,30.30,NNW,338,1.8,5.1,53,0.00,,,0.00,WUHU216HW,2013-03-06 07:55:00,
2013-03-06 02:00:00,40.0,24.1,30.31,NNW,338,2.0,3.6,53,0.00,,,0.00,WUHU216HW,2013-03-06 08:00:00,
2013-03-06 02:05:00,40.0,24.1,30.31,WNW,293,2.0,4.3,53,0.00,,,0.00,WUHU216HW,2013-03-06 08:05:00,
2013-03-06 02:10:00,40.0,24.1,30.31,NW,315,0.4,4.3,53,0.00,,,0.00,WUHU216HW,2013-03-06 08:10:00,
2013-03-06 02:15:00,40.1,24.3,30.31,NNW,338,1.3,4.0,53,0.00,,,0.00,WUHU216HW,2013-03-06 08:15:00,
2013-03-06 02:20:00,40.0,24.1,30.31,North,0,3.1,3.4,53,0.00,,,0.00,WUHU216HW,2013-03-06 08:20:00,
2013-03-06 02:25:00,40.0,24.6,30.31,WNW,293,2.0,4.5,54,0.00,,,0.00,WUHU216HW,2013-03-06 08:25:00,
2013-03-06 02:30:00,40.0,24.1,30.31,NW,315,3.8,4.5,53,0.00,,,0.00,WUHU216HW,2013-03-06 08:30:00,
2013-03-06 02:35:00,40.0,24.6,30.31,NNW,338,1.8,3.8,54,0.00,,,0.00,WUHU216HW,2013-03-06 08:35:00,
2013-03-06 02:40:00,40.0,24.6,30.31,North,0,2.0,5.4,54,0.00,,,0.00,WUHU216HW,2013-03-06 08:40:00,
2013-03-06 02:45:00,40.0,24.6,30.31,North,0,3.8,3.8,54,0.00,,,0.00,WUHU216HW,2013-03-06 08:45:00,
2013-03-06 02:50:00,39.8,24.4,30.31,NNW,338,4.9,4.9,54,0.00,,,0.00,WUHU216HW,2013-03-06 08:50:00,
2013-03-06 02:55:00,39.8,24.4,30.31,NW,315,3.4,4.9,54,0.00,,,0.00,WUHU216HW,2013-03-06 08:55:00,
2013-03-06 03:00:00,39.6,24.2,30.30,North,0,3.6,4.5,54,0.00,,,0.00,WUHU216HW,2013-03-06 09:00:00,
2013-03-06 03:05:00,39.4,24.0,30.30,NNW,338,1.8,4.5,54,0.00,,,0.00,WUHU216HW,2013-03-06 09:05:00,
2013-03-06 03:10:00,39.2,24.3,30.30,NW,315,2.7,4.7,55,0.00,,,0.00,WUHU216HW,2013-03-06 09:10:00,
2013-03-06 03:15:00,39.2,24.3,30.30,NW,315,2.7,4.7,55,0.00,,,0.00,WUHU216HW,2013-03-06 09:15:00,
2013-03-06 03:20:00,39.1,24.1,30.30,NNW,338,3.4,4.7,55,0.00,,,0.00,WUHU216HW,2013-03-06 09:20:00,
2013-03-06 03:25:00,39.1,24.6,30.30,NNW,338,1.8,4.7,56,0.00,,,0.00,WUHU216HW,2013-03-06 09:25:00,
2013-03-06 03:30:00,38.9,24.4,30.30,North,0,1.8,4.0,56,0.00,,,0.00,WUHU216HW,2013-03-06 09:30:00,
2013-03-06 03:35:00,38.9,24.4,30.30,NNW,338,1.8,4.0,56,0.00,,,0.00,WUHU216HW,2013-03-06 09:35:00,
2013-03-06 03:40:00,38.5,24.1,30.30,NW,315,1.8,3.8,56,0.00,,,0.00,WUHU216HW,2013-03-06 09:40:00,
2013-03-06 03:45:00,38.5,24.1,30.30,NNW,338,0.7,3.8,56,0.00,,,0.00,WUHU216HW,2013-03-06 09:45:00,
2013-03-06 03:50:00,38.3,24.0,30.30,NW,315,2.5,3.1,56,0.00,,,0.00,WUHU216HW,2013-03-06 09:50:00,
2013-03-06 03:55:00,38.2,24.2,30.30,NNW,338,1.8,2.9,57,0.00,,,0.00,WUHU216HW,2013-03-06 09:55:00,
2013-03-06 04:01:00,37.8,23.9,30.30,NNW,338,2.5,2.5,57,0.00,,,0.00,WUHU216HW,2013-03-06 10:01:00,
2013-03-06 04:06:00,37.8,23.9,30.30,NNW,338,0.9,3.8,57,0.00,,,0.00,WUHU216HW,2013-03-06 10:06:00,
2013-03-06 04:11:00,37.6,24.1,30.31,NW,315,0.9,3.8,58,0.00,,,0.00,WUHU216HW,2013-03-06 10:11:00,
2013-03-06 04:15:00,37.4,24.4,30.31,NNW,338,1.3,3.8,59,0.00,,,0.00,WUHU216HW,2013-03-06 10:15:00,
2013-03-06 04:20:00,37.4,24.4,30.31,NNW,338,1.3,3.8,59,0.00,,,0.00,WUHU216HW,2013-03-06 10:20:00,
2013-03-06 04:26:00,37.3,23.9,30.31,NW,315,0.4,3.4,58,0.00,,,0.00,WUHU216HW,2013-03-06 10:26:00,
2013-03-06 04:31:00,37.1,24.1,30.31,North,0,1.1,3.4,59,0.00,,,0.00,WUHU216HW,2013-03-06 10:31:00,
2013-03-06 04:36:00,36.9,24.0,30.31,North,0,1.6,2.5,59,0.00,,,0.00,WUHU216HW,2013-03-06 10:36:00,
2013-03-06 04:41:00,36.7,23.8,30.30,NNE,23,1.3,2.5,59,0.00,,,0.00,WUHU216HW,2013-03-06 10:41:00,
2013-03-06 04:46:00,36.5,24.0,30.30,North,0,1.1,2.5,60,0.00,,,0.00,WUHU216HW,2013-03-06 10:46:00,
2013-03-06 04:51:00,36.5,24.0,30.31,North,0,1.6,2.5,60,0.00,,,0.00,WUHU216HW,2013-03-06 10:51:00,
2013-03-06 04:56:00,36.4,23.9,30.30,NNW,338,0.9,1.8,60,0.00,,,0.00,WUHU216HW,2013-03-06 10:56:00,
2013-03-06 05:01:00,36.4,23.9,30.30,NW,315,3.4,3.4,60,0.00,,,0.00,WUHU216HW,2013-03-06 11:01:00,
2013-03-06 05:06:00,36.4,23.9,30.31,NW,315,2.5,3.4,60,0.00,,,0.00,WUHU216HW,2013-03-06 11:06:00,
2013-03-06 05:11:00,36.2,23.7,30.31,North,0,1.6,3.4,60,0.00,,,0.00,WUHU216HW,2013-03-06 11:11:00,
2013-03-06 05:16:00,36.4,24.2,30.30,NNW,338,3.6,3.6,61,0.00,,,0.00,WUHU216HW,2013-03-06 11:16:00,
2013-03-06 05:21:00,36.4,23.9,30.30,NNW,338,1.1,4.7,60,0.00,,,0.00,WUHU216HW,2013-03-06 11:21:00,
2013-03-06 05:26:00,36.7,24.2,30.31,NNW,338,1.8,4.7,60,0.00,,,0.00,WUHU216HW,2013-03-06 11:26:00,
2013-03-06 05:31:00,36.9,24.4,30.31,NNW,338,0.4,5.4,60,0.00,,,0.00,WUHU216HW,2013-03-06 11:31:00,
2013-03-06 05:36:00,36.7,24.2,30.31,NNW,338,1.8,5.4,60,0.00,,,0.00,WUHU216HW,2013-03-06 11:36:00,
2013-03-06 05:41:00,36.7,24.2,30.32,NNW,338,2.5,3.4,60,0.00,,,0.00,WUHU216HW,2013-03-06 11:41:00,
2013-03-06 05:46:00,36.7,24.2,30.32,NW,315,3.8,3.8,60,0.00,,,0.00,WUHU216HW,2013-03-06 11:46:00,
2013-03-06 05:51:00,36.7,24.2,30.32,North,0,1.1,3.8,60,0.00,,,0.00,WUHU216HW,2013-03-06 11:51:00,
2013-03-06 05:56:00,36.7,24.2,30.32,NNW,338,3.1,3.8,60,0.00,,,0.00,WUHU216HW,2013-03-06 11:56:00,
2013-03-06 06:01:00,36.5,24.0,30.32,NNW,338,1.6,3.8,60,0.00,,,0.00,WUHU216HW,2013-03-06 12:01:00,
2013-03-06 06:06:00,36.5,24.0,30.32,NNW,338,1.6,6.0,60,0.00,,,0.00,WUHU216HW,2013-03-06 12:06:00,
2013-03-06 06:11:00,36.4,23.9,30.32,NNW,338,4.7,6.0,60,0.00,,,0.00,WUHU216HW,2013-03-06 12:11:00,
2013-03-06 06:16:00,36.4,23.9,30.32,NNW,338,2.5,5.1,60,0.00,,,0.00,WUHU216HW,2013-03-06 12:16:00,
2013-03-06 06:21:00,36.0,23.6,30.32,NNW,338,2.9,4.5,60,0.00,,,0.00,WUHU216HW,2013-03-06 12:21:00,
2013-03-06 06:26:00,35.8,23.4,30.32,North,0,1.3,3.8,60,0.00,,,0.00,WUHU216HW,2013-03-06 12:26:00,
2013-03-06 06:31:00,35.8,23.8,30.33,NNW,338,1.3,3.8,61,0.00,,,0.00,WUHU216HW,2013-03-06 12:31:00,
2013-03-06 06:36:00,35.6,23.2,30.33,North,0,2.5,3.8,60,0.00,,,0.00,WUHU216HW,2013-03-06 12:36:00,
2013-03-06 06:41:00,35.6,23.6,30.33,NW,315,1.8,5.4,61,0.00,,,0.00,WUHU216HW,2013-03-06 12:41:00,
2013-03-06 06:46:00,35.6,23.6,30.33,North,0,1.8,5.4,61,0.00,,,0.00,WUHU216HW,2013-03-06 12:46:00,
2013-03-06 06:51:00,35.6,23.6,30.34,North,0,2.2,2.9,61,0.00,,,0.00,WUHU216HW,2013-03-06 12:51:00,
2013-03-06 06:56:00,35.6,23.6,30.34,NNW,338,2.5,2.9,61,0.00,,,0.00,WUHU216HW,2013-03-06 12:56:00,
2013-03-06 07:01:00,35.6,23.6,30.34,NNW,338,1.3,2.9,61,0.00,,,0.00,WUHU216HW,2013-03-06 13:01:00,
2013-03-06 07:06:00,36.0,24.0,30.34,NNW,338,2.7,2.9,61,0.00,,,0.00,WUHU216HW,2013-03-06 13:06:00,
2013-03-06 07:11:00,36.4,23.9,30.34,NW,315,1.1,2.7,60,0.00,,,0.00,WUHU216HW,2013-03-06 13:11:00,
2013-03-06 07:16:00,36.7,24.2,30.34,NW,315,2.0,3.4,60,0.00,,,0.00,WUHU216HW,2013-03-06 13:16:00,
2013-03-06 07:21:00,36.7,24.2,30.34,North,0,1.1,3.4,60,0.00,,,0.00,WUHU216HW,2013-03-06 13:21:00,
2013-03-06 07:26:00,37.3,24.7,30.35,North,0,2.0,2.5,60,0.00,,,0.00,WUHU216HW,2013-03-06 13:26:00,
2013-03-06 07:31:00,37.6,25.0,30.35,North,0,1.6,3.4,60,0.00,,,0.00,WUHU216HW,2013-03-06 13:31:00,
2013-03-06 07:36:00,38.0,25.3,30.35,North,0,2.9,3.4,60,0.00,,,0.00,WUHU216HW,2013-03-06 13:36:00,
2013-03-06 07:41:00,38.5,25.8,30.35,NNW,338,2.9,2.9,60,0.00,,,0.00,WUHU216HW,2013-03-06 13:41:00,
2013-03-06 07:46:00,39.1,26.3,30.36,NNW,338,3.6,4.5,60,0.00,,,0.00,WUHU216HW,2013-03-06 13:46:00,
2013-03-06 07:51:00,39.6,26.4,30.37,NNW,338,3.1,4.5,59,0.00,,,0.00,WUHU216HW,2013-03-06 13:51:00,
2013-03-06 07:56:00,40.0,26.3,30.37,North,0,1.1,3.1,58,0.00,,,0.00,WUHU216HW,2013-03-06 13:56:00,
2013-03-06 08:01:00,40.5,26.4,30.37,NW,315,3.4,4.7,57,0.00,,,0.00,WUHU216HW,2013-03-06 14:01:00,
2013-03-06 08:06:00,40.9,26.3,30.37,North,0,2.7,5.4,56,0.00,,,0.00,WUHU216HW,2013-03-06 14:06:00,
2013-03-06 08:11:00,41.0,26.0,30.37,North,0,4.7,7.6,55,0.00,,,0.00,WUHU216HW,2013-03-06 14:11:00,
2013-03-06 08:16:00,41.4,25.9,30.37,North,0,3.8,8.5,54,0.00,,,0.00,WUHU216HW,2013-03-06 14:16:00,
2013-03-06 08:21:00,42.1,26.2,30.38,NNE,23,2.9,8.5,53,0.00,,,0.00,WUHU216HW,2013-03-06 14:21:00,
2013-03-06 08:26:00,42.7,26.3,30.37,North,0,3.4,7.6,52,0.00,,,0.00,WUHU216HW,2013-03-06 14:26:00,
2013-03-06 08:31:00,42.8,26.0,30.38,NNW,338,2.5,7.6,51,0.00,,,0.00,WUHU216HW,2013-03-06 14:31:00,
2013-03-06 08:36:00,43.2,25.9,30.38,North,0,5.8,11.2,50,0.00,,,0.00,WUHU216HW,2013-03-06 14:36:00,
2013-03-06 08:41:00,43.6,25.1,30.38,NNE,23,7.4,11.2,48,0.00,,,0.00,WUHU216HW,2013-03-06 14:41:00,
2013-03-06 08:46:00,43.9,24.9,30.38,NNE,23,5.8,7.4,47,0.00,,,0.00,WUHU216HW,2013-03-06 14:46:00,
2013-03-06 08:51:00,44.3,25.7,30.39,NNE,23,1.1,5.8,48,0.00,,,0.00,WUHU216HW,2013-03-06 14:51:00,
2013-03-06 08:56:00,44.5,24.8,30.39,ENE,68,6.5,6.5,46,0.00,,,0.00,WUHU216HW,2013-03-06 14:56:00,
2013-03-06 09:01:00,44.6,24.5,30.38,NNW,338,6.9,7.8,45,0.00,,,0.00,WUHU216HW,2013-03-06 15:01:00,
2013-03-06 09:06:00,44.6,25.0,30.38,North,0,3.1,10.7,46,0.00,,,0.00,WUHU216HW,2013-03-06 15:06:00,
2013-03-06 09:11:00,44.8,24.7,30.39,NNW,338,6.3,10.7,45,0.00,,,0.00,WUHU216HW,2013-03-06 15:11:00,
2013-03-06 09:16:00,45.0,25.4,30.39,North,0,3.8,6.3,46,0.00,,,0.00,WUHU216HW,2013-03-06 15:16:00,
2013-03-06 09:21:00,45.7,26.0,30.39,NNE,23,5.6,5.6,46,0.00,,,0.00,WUHU216HW,2013-03-06 15:21:00,
2013-03-06 09:26:00,46.4,26.1,30.39,NNW,338,6.0,7.6,45,0.00,,,0.00,WUHU216HW,2013-03-06 15:26:00,
2013-03-06 09:31:00,46.4,26.1,30.39,NNE,23,6.3,7.6,45,0.00,,,0.00,WUHU216HW,2013-03-06 15:31:00,
2013-03-06 09:36:00,46.6,26.3,30.39,NNW,338,3.6,7.2,45,0.00,,,0.00,WUHU216HW,2013-03-06 15:36:00,
2013-03-06 09:41:00,47.0,26.6,30.39,North,0,4.0,5.6,45,0.00,,,0.00,WUHU216HW,2013-03-06 15:41:00,
2013-03-06 09:46:00,47.3,26.9,30.38,NNE,23,2.7,5.1,45,0.00,,,0.00,WUHU216HW,2013-03-06 15:46:00,
2013-03-06 09:51:00,48.2,27.7,30.38,NNW,338,2.5,5.1,45,0.00,,,0.00,WUHU216HW,2013-03-06 15:51:00,
2013-03-06 09:56:00,48.6,27.0,30.38,NE,45,8.5,8.5,43,0.00,,,0.00,WUHU216HW,2013-03-06 15:56:00,
2013-03-06 10:01:00,48.8,27.2,30.38,NNW,338,3.4,8.5,43,0.00,,,0.00,WUHU216HW,2013-03-06 16:01:00,
2013-03-06 10:06:00,49.1,27.5,30.38,North,0,5.8,6.0,43,0.00,,,0.00,WUHU216HW,2013-03-06 16:06:00,
2013-03-06 10:11:00,49.7,27.5,30.38,North,0,8.7,8.7,42,0.00,,,0.00,WUHU216HW,2013-03-06 16:11:00,
2013-03-06 10:16:00,50.0,27.7,30.38,NNE,23,7.2,8.7,42,0.00,,,0.00,WUHU216HW,2013-03-06 16:16:00,
2013-03-06 10:21:00,50.6,28.8,30.38,NNW,338,3.6,7.2,43,0.00,,,0.00,WUHU216HW,2013-03-06 16:21:00,
2013-03-06 10:26:00,50.8,27.8,30.37,NNW,338,5.4,6.9,41,0.00,,,0.00,WUHU216HW,2013-03-06 16:26:00,
2013-03-06 10:31:00,51.3,28.4,30.37,NW,315,2.0,6.3,41,0.00,,,0.00,WUHU216HW,2013-03-06 16:31:00,
2013-03-06 10:36:00,51.5,28.5,30.37,North,0,6.0,6.9,41,0.00,,,0.00,WUHU216HW,2013-03-06 16:36:00,
2013-03-06 10:41:00,51.3,27.8,30.37,North,0,4.0,7.6,40,0.00,,,0.00,WUHU216HW,2013-03-06 16:41:00,
2013-03-06 10:46:00,51.3,28.4,30.36,North,0,4.7,7.6,41,0.00,,,0.00,WUHU216HW,2013-03-06 16:46:00,
2013-03-06 10:51:00,51.8,28.3,30.36,NNE,23,6.9,6.9,40,0.00,,,0.00,WUHU216HW,2013-03-06 16:51:00,
2013-03-06 10:56:00,51.5,27.3,30.36,North,0,8.5,8.5,39,0.00,,,0.00,WUHU216HW,2013-03-06 16:56:00,
2013-03-06 11:01:00,51.1,27.6,30.35,North,0,5.6,8.5,40,0.00,,,0.00,WUHU216HW,2013-03-06 17:01:00,
2013-03-06 11:06:00,52.7,29.1,30.36,NE,45,3.1,5.8,40,0.00,,,0.00,WUHU216HW,2013-03-06 17:06:00,
2013-03-06 11:11:00,53.6,28.5,30.36,NW,315,2.9,6.9,38,0.00,,,0.00,WUHU216HW,2013-03-06 17:11:00,
2013-03-06 11:16:00,53.3,28.2,30.36,NNW,338,5.4,6.9,38,0.00,,,0.00,WUHU216HW,2013-03-06 17:16:00,
2013-03-06 11:21:00,52.9,27.9,30.36,North,0,3.1,7.6,38,0.00,,,0.00,WUHU216HW,2013-03-06 17:21:00,
2013-03-06 11:26:00,52.6,27.5,30.35,North,0,2.5,7.6,38,0.00,,,0.00,WUHU216HW,2013-03-06 17:26:00,
2013-03-06 11:31:00,53.3,28.2,30.36,NNW,338,1.1,4.5,38,0.00,,,0.00,WUHU216HW,2013-03-06 17:31:00,
2013-03-06 11:41:00,54.7,29.4,30.35,NE,45,1.6,2.9,38,0.00,,,0.00,WUHU216HW,2013-03-06 17:41:00,
2013-03-06 11:46:00,54.7,29.4,30.35,NE,45,1.6,1.6,38,0.00,,,0.00,WUHU216HW,2013-03-06 17:46:00,
2013-03-06 11:59:00,54.4,26.4,30.34,WSW,248,0.4,0.4,34,0.00,,,0.00,WUHU216HW,2013-03-06 17:59:00,
2013-03-06 12:04:00,54.4,25.7,30.34,WSW,248,1.6,1.6,33,0.00,,,0.00,WUHU216HW,2013-03-06 18:04:00,
2013-03-06 12:09:00,54.4,25.7,30.34,WSW,248,1.6,1.6,33,0.00,,,0.00,WUHU216HW,2013-03-06 18:09:00,
2013-03-06 12:59:00,58.3,25.1,30.31,West,270,3.4,3.4,28,0.00,,,0.00,WUHU216HW,2013-03-06 18:59:00,
2013-03-06 13:04:00,58.3,25.1,30.31,West,270,3.4,3.4,28,0.00,,,0.00,WUHU216HW,2013-03-06 19:04:00,
2013-03-06 13:09:00,58.3,25.1,30.31,West,270,3.4,3.4,28,0.00,,,0.00,WUHU216HW,2013-03-06 19:09:00,
2013-03-06 13:29:00,60.7,29.0,30.29,NE,45,0.7,0.7,30,0.00,,,0.00,WUHU216HW,2013-03-06 19:29:00,
2013-03-06 13:34:00,60.7,29.0,30.29,NE,45,0.7,0.7,30,0.00,,,0.00,WUHU216HW,2013-03-06 19:34:00,
2013-03-06 13:59:00,63.0,26.2,30.27,WSW,248,3.4,3.4,25,0.00,,,0.00,WUHU216HW,2013-03-06 19:59:00,
2013-03-06 14:04:00,63.0,26.2,30.27,WSW,248,3.4,3.4,25,0.00,,,0.00,WUHU216HW,2013-03-06 20:04:00,
2013-03-06 14:29:00,66.4,29.2,30.24,NNW,338,2.0,2.0,25,0.00,,,0.00,WUHU216HW,2013-03-06 20:29:00,
2013-03-06 14:34:00,67.1,29.7,30.24,North,0,3.1,5.8,25,0.00,,,0.00,WUHU216HW,2013-03-06 20:34:00,
2013-03-06 14:39:00,67.1,28.7,30.24,NNE,23,2.5,5.8,24,0.00,,,0.00,WUHU216HW,2013-03-06 20:39:00,
2013-03-06 14:44:00,65.9,24.7,30.24,NE,45,3.1,4.9,21,0.00,,,0.00,WUHU216HW,2013-03-06 20:44:00,
2013-03-06 14:49:00,65.9,28.7,30.23,ENE,68,1.3,8.1,25,0.00,,,0.00,WUHU216HW,2013-03-06 20:49:00,
2013-03-06 14:54:00,67.3,28.9,30.23,NNE,23,3.6,8.1,24,0.00,,,0.00,WUHU216HW,2013-03-06 20:54:00,
2013-03-06 14:59:00,67.0,26.6,30.24,East,90,3.1,3.6,22,0.00,,,0.00,WUHU216HW,2013-03-06 20:59:00,
2013-03-06 15:04:00,67.0,26.6,30.24,East,90,3.1,3.1,22,0.00,,,0.00,WUHU216HW,2013-03-06 21:04:00,
2013-03-06 15:29:00,70.9,29.9,30.22,NNE,23,3.8,3.8,22,0.00,,,0.00,WUHU216HW,2013-03-06 21:29:00,
2013-03-06 15:34:00,70.9,29.9,30.22,NNE,23,3.8,3.8,22,0.00,,,0.00,WUHU216HW,2013-03-06 21:34:00,
2013-03-06 15:59:00,72.2,22.4,30.21,North,0,4.0,4.0,16,0.00,,,0.00,WUHU216HW,2013-03-06 21:59:00,
2013-03-06 16:04:00,72.2,22.4,30.21,North,0,4.0,4.0,16,0.00,,,0.00,WUHU216HW,2013-03-06 22:04:00,
2013-03-06 16:09:00,72.2,22.4,30.21,North,0,4.0,4.0,16,0.00,,,0.00,WUHU216HW,2013-03-06 22:09:00,
2013-03-06 16:29:00,64.8,19.6,30.20,NE,45,2.2,2.2,18,0.00,,,0.00,WUHU216HW,2013-03-06 22:29:00,
2013-03-06 16:34:00,64.8,19.6,30.20,NE,45,2.2,2.2,18,0.00,,,0.00,WUHU216HW,2013-03-06 22:34:00,
2013-03-06 16:59:00,60.7,20.4,30.19,NNW,338,1.8,1.8,21,0.00,,,0.00,WUHU216HW,2013-03-06 22:59:00,
2013-03-06 17:04:00,60.7,20.4,30.19,NNW,338,1.8,1.8,21,0.00,,,0.00,WUHU216HW,2013-03-06 23:04:00,
2013-03-06 17:29:00,58.9,20.8,30.18,North,0,1.8,1.8,23,0.00,,,0.00,WUHU216HW,2013-03-06 23:29:00,
2013-03-06 17:34:00,58.9,20.8,30.18,North,0,1.8,1.8,23,0.00,,,0.00,WUHU216HW,2013-03-06 23:34:00,
2013-03-06 17:59:00,56.9,22.0,30.17,North,0,0.0,0.0,26,0.00,,,0.00,WUHU216HW,2013-03-06 23:59:00,
2013-03-06 18:04:00,56.9,22.0,30.17,North,0,0.0,0.0,26,0.00,,,0.00,WUHU216HW,2013-03-07 00:04:00,
2013-03-06 18:29:00,52.4,26.7,30.18,West,270,0.0,0.0,37,0.00,,,0.00,WUHU216HW,2013-03-07 00:29:00,
2013-03-06 18:34:00,52.4,26.7,30.18,West,270,0.0,0.0,37,0.00,,,0.00,WUHU216HW,2013-03-07 00:34:00,
2013-03-06 18:39:00,52.4,26.7,30.18,West,270,0.0,0.0,37,0.00,,,0.00,WUHU216HW,2013-03-07 00:39:00,
2013-03-06 18:59:00,50.0,28.9,30.18,WNW,293,0.0,0.0,44,0.00,,,0.00,WUHU216HW,2013-03-07 00:59:00,
2013-03-06 19:04:00,50.0,28.9,30.18,WNW,293,0.0,0.0,44,0.00,,,0.00,WUHU216HW,2013-03-07 01:04:00,
2013-03-06 19:29:00,48.6,28.1,30.19,WNW,293,0.0,0.0,45,0.00,,,0.00,WUHU216HW,2013-03-07 01:29:00,
2013-03-06 19:34:00,48.6,28.1,30.19,WNW,293,0.0,0.0,45,0.00,,,0.00,WUHU216HW,2013-03-07 01:34:00,
2013-03-06 19:39:00,48.6,28.1,30.19,WNW,293,0.0,0.0,45,0.00,,,0.00,WUHU216HW,2013-03-07 01:39:00,
2013-03-06 19:59:00,49.1,29.7,30.18,WNW,293,0.0,0.0,47,0.00,,,0.00,WUHU216HW,2013-03-07 01:59:00,
2013-03-06 20:04:00,49.1,29.7,30.18,WNW,293,0.0,0.0,47,0.00,,,0.00,WUHU216HW,2013-03-07 02:04:00,
2013-03-06 20:29:00,47.5,29.8,30.18,WNW,293,0.0,0.0,50,0.00,,,0.00,WUHU216HW,2013-03-07 02:29:00,
2013-03-06 20:34:00,47.5,29.8,30.18,WNW,293,0.0,0.0,50,0.00,,,0.00,WUHU216HW,2013-03-07 02:34:00,
2013-03-06 20:59:00,45.0,28.5,30.18,WNW,293,0.0,0.0,52,0.00,,,0.00,WUHU216HW,2013-03-07 02:59:00,
2013-03-06 21:04:00,45.0,28.5,30.18,WNW,293,0.0,0.0,52,0.00,,,0.00,WUHU216HW,2013-03-07 03:04:00,
2013-03-06 21:09:00,45.0,28.5,30.18,WNW,293,0.0,0.0,52,0.00,,,0.00,WUHU216HW,2013-03-07 03:09:00,
2013-03-06 21:30:00,43.0,27.5,30.16,WNW,293,0.0,0.0,54,0.00,,,0.00,WUHU216HW,2013-03-07 03:30:00,
2013-03-06 21:34:00,42.7,27.5,30.16,WNW,293,0.0,0.0,55,0.00,,,0.00,WUHU216HW,2013-03-07 03:34:00,
2013-03-06 21:39:00,42.3,26.7,30.16,WNW,293,0.0,0.0,54,0.00,,,0.00,WUHU216HW,2013-03-07 03:39:00,
2013-03-06 21:45:00,42.3,26.7,30.16,WNW,293,0.0,0.0,54,0.00,,,0.00,WUHU216HW,2013-03-07 03:45:00,
2013-03-06 21:50:00,42.3,27.2,30.16,WNW,293,0.0,0.0,55,0.00,,,0.00,WUHU216HW,2013-03-07 03:50:00,
2013-03-06 21:55:00,42.3,27.2,30.16,WNW,293,0.0,0.0,55,0.00,,,0.00,WUHU216HW,2013-03-07 03:55:00,
2013-03-06 22:00:00,41.8,29.3,30.16,WNW,293,0.0,0.0,61,0.00,,,0.00,WUHU216HW,2013-03-07 04:00:00,
2013-03-06 22:04:00,41.4,29.0,30.16,WNW,293,0.0,0.0,61,0.00,,,0.00,WUHU216HW,2013-03-07 04:04:00,
2013-03-06 22:09:00,41.0,29.0,30.16,WNW,293,0.0,0.0,62,0.00,,,0.00,WUHU216HW,2013-03-07 04:09:00,
2013-03-06 22:15:00,40.9,28.4,30.16,WNW,293,0.0,0.0,61,0.00,,,0.00,WUHU216HW,2013-03-07 04:15:00,
2013-03-06 22:20:00,40.9,28.1,30.16,WNW,293,0.0,0.0,60,0.00,,,0.00,WUHU216HW,2013-03-07 04:20:00,
2013-03-06 22:25:00,40.9,28.1,30.16,WNW,293,0.0,0.0,60,0.00,,,0.00,WUHU216HW,2013-03-07 04:25:00,
2013-03-06 22:30:00,41.0,27.8,30.16,WNW,293,0.0,0.0,59,0.00,,,0.00,WUHU216HW,2013-03-07 04:30:00,
2013-03-06 22:35:00,41.0,28.6,30.16,NNW,338,0.4,0.4,61,0.00,,,0.00,WUHU216HW,2013-03-07 04:35:00,
2013-03-06 22:40:00,41.2,28.0,30.15,NE,45,0.0,0.7,59,0.00,,,0.00,WUHU216HW,2013-03-07 04:40:00,
2013-03-06 22:45:00,41.4,27.3,30.16,NNE,23,0.9,0.9,57,0.00,,,0.00,WUHU216HW,2013-03-07 04:45:00,
2013-03-06 22:50:00,41.9,26.9,30.15,North,0,0.9,0.9,55,0.00,,,0.00,WUHU216HW,2013-03-07 04:50:00,
2013-03-06 22:55:00,42.1,27.0,30.15,ENE,68,0.0,0.9,55,0.00,,,0.00,WUHU216HW,2013-03-07 04:55:00,
2013-03-06 23:00:00,42.1,27.0,30.15,North,0,0.0,0.4,55,0.00,,,0.00,WUHU216HW,2013-03-07 05:00:00,
2013-03-06 23:05:00,41.4,28.6,30.16,NNW,338,0.0,0.4,60,0.00,,,0.00,WUHU216HW,2013-03-07 05:05:00,
2013-03-06 23:10:00,40.7,27.9,30.15,NNW,338,0.0,0.4,60,0.00,,,0.00,WUHU216HW,2013-03-07 05:10:00,
2013-03-06 23:15:00,40.1,27.4,30.14,NE,45,0.0,0.4,60,0.00,,,0.00,WUHU216HW,2013-03-07 05:15:00,
2013-03-06 23:20:00,40.0,26.3,30.14,NE,45,0.0,0.4,58,0.00,,,0.00,WUHU216HW,2013-03-07 05:20:00,
2013-03-06 23:25:00,40.0,26.7,30.14,NNE,23,0.0,0.0,59,0.00,,,0.00,WUHU216HW,2013-03-07 05:25:00,
2013-03-06 23:30:00,40.5,24.6,30.14,ENE,68,0.7,0.7,53,0.00,,,0.00,WUHU216HW,2013-03-07 05:30:00,
2013-03-06 23:35:00,41.0,26.0,30.14,ESE,113,1.1,1.3,55,0.00,,,0.00,WUHU216HW,2013-03-07 05:35:00,
2013-03-06 23:40:00,41.8,23.9,30.14,ESE,113,2.5,2.5,49,0.00,,,0.00,WUHU216HW,2013-03-07 05:40:00,
2013-03-06 23:45:00,42.7,23.2,30.14,East,90,1.8,2.5,46,0.00,,,0.00,WUHU216HW,2013-03-07 05:45:00,
2013-03-06 23:50:00,43.4,23.3,30.13,East,90,0.7,1.8,45,0.00,,,0.00,WUHU216HW,2013-03-07 05:50:00,
2013-03-06 23:55:00,43.6,23.0,30.14,ENE,68,0.4,2.5,44,0.00,,,0.00,WUHU216HW,2013-03-07 05:55:00,